sat.trackr.live / text

‹ back to catalog

FLOCK 4BE-3

NORAD 60561 · 2024-149CX

PAYLOAD ACTIVE UNKNOWN

§ Identity

Operator
Country
US
Launch date
2024-08-16
Launch site
AFWTR
Launch vehicle
Mass (kg)
RCS (m²)

Purposes: earth_obs

External: N2YO · Heavens-Above · Gunter

§ Orbital elements

Epoch: 2026-05-25T03:54:13.747968Z

Period
93.46 min
Inclination
97.3697°
Eccentricity
0.0004015
Mean motion
15.40786629 rev/d
Perigee alt
441.0 km
Apogee alt
446.5 km
Semi-major
6,821.9 km
B*
4.1117e-4
RAAN
228.8674°
Arg perigee
33.5344°
Mean anomaly
326.6156°
Rev number
9,879

§ Raw data

FLOCK 4BE-31 60561U 24149CX  26145.16265912  .00016770  00000+0  41117-3 0  99952 60561  97.3697 228.8674 0004015  33.5344 326.6156 15.40786629 98790

JSON: /api/v1/satellites/60561 · /tle

For live sub-satellite position, see the globe view (requires WebGL).

§ Visibility from observer

Set your observer location to see the next 7 days of passes ≥ 10°. The values pass through the URL so the page stays shareable.

No JS? Fill the form by hand. The geolocation button needs JavaScript.